| time (UTC) | temp C | wind direction | speed KPH | gust KPH | rain 1hr cm | rain 24hr cm | rain mn cm | humidity % | barometer mb |
| 20260502222017 | 10 | 248 | 3.2 | 12.9 | 0.00 | 0.00 | 0.00 | 45 | 1016.7 |
| 20260502221516 | 10 | 293 | 6.4 | 12.9 | 0.00 | 0.00 | 0.00 | 44 | 1016.6 |
| 20260502221016 | 10 | 248 | 3.2 | 12.9 | 0.00 | 0.00 | 0.00 | 46 | 1016.6 |
| 20260502220516 | 10 | 0.0 | 8.0 | 0.00 | 0.00 | 0.00 | 47 | 1016.7 | |
| 20260502220016 | 10 | 0.0 | 4.8 | 0.00 | 0.00 | 0.00 | 46 | 1016.7 | |
| 20260502215517 | 10 | 248 | 3.2 | 9.7 | 0.00 | 0.00 | 0.00 | 44 | 1016.7 |
| 20260502215016 | 10 | 248 | 3.2 | 8.0 | 0.00 | 0.00 | 0.00 | 45 | 1016.7 |
| 20260502214516 | 10 | 270 | 3.2 | 17.7 | 0.00 | 0.00 | 0.00 | 45 | 1016.8 |
| 20260502214016 | 10 | 248 | 3.2 | 8.0 | 0.00 | 0.00 | 0.00 | 47 | 1016.8 |
| 20260502213516 | 10 | 293 | 3.2 | 9.7 | 0.00 | 0.00 | 0.00 | 46 | 1016.7 |
| 20260502213016 | 10 | 0.0 | 4.8 | 0.00 | 0.00 | 0.00 | 49 | 1016.7 | |
| 20260502212516 | 10 | 248 | 3.2 | 8.0 | 0.00 | 0.00 | 0.00 | 47 | 1016.8 |
| 20260502212016 | 10 | 248 | 6.4 | 20.9 | 0.00 | 0.00 | 0.00 | 46 | 1016.8 |
| 20260502211547 | 10 | 248 | 3.2 | 8.0 | 0.00 | 0.00 | 0.00 | 47 | 1016.8 |
| 20260502211016 | 10 | 293 | 3.2 | 17.7 | 0.00 | 0.00 | 0.00 | 46 | 1016.8 |
| 20260502210546 | 10 | 248 | 3.2 | 8.0 | 0.00 | 0.00 | 0.00 | 48 | 1016.8 |
| 20260502210016 | 10 | 293 | 6.4 | 12.9 | 0.00 | 0.00 | 0.00 | 45 | 1016.9 |
| 20260502205546 | 10 | 248 | 3.2 | 12.9 | 0.00 | 0.00 | 0.00 | 46 | 1016.9 |
| 20260502205016 | 10 | 248 | 3.2 | 12.9 | 0.00 | 0.00 | 0.00 | 47 | 1017.0 |
| 20260502204516 | 9 | 270 | 3.2 | 12.9 | 0.00 | 0.00 | 0.00 | 48 | 1017.1 |
| 20260502204016 | 9 | 0.0 | 4.8 | 0.00 | 0.00 | 0.00 | 49 | 1017.0 | |
| 20260502203516 | 9 | 293 | 3.2 | 20.9 | 0.00 | 0.00 | 0.00 | 47 | 1017.2 |
| 20260502203016 | 9 | 315 | 3.2 | 12.9 | 0.00 | 0.00 | 0.00 | 46 | 1017.1 |
| 20260502202516 | 9 | 293 | 3.2 | 8.0 | 0.00 | 0.00 | 0.00 | 48 | 1017.1 |
| 20260502202016 | 9 | 248 | 3.2 | 12.9 | 0.00 | 0.00 | 0.00 | 47 | 1017.1 |
| 20260502201516 | 10 | 248 | 3.2 | 8.0 | 0.00 | 0.00 | 0.00 | 47 | 1017.1 |
| 20260502201016 | 10 | 293 | 3.2 | 16.1 | 0.00 | 0.00 | 0.00 | 46 | 1017.1 |
| 20260502200516 | 9 | 0.0 | 4.8 | 0.00 | 0.00 | 0.00 | 49 | 1017.3 | |
| 20260502200046 | 9 | 0.0 | 9.7 | 0.00 | 0.00 | 0.00 | 48 | 1017.4 | |
| 20260502195516 | 9 | 270 | 3.2 | 12.9 | 0.00 | 0.00 | 0.00 | 48 | 1017.5 |
| 20260502195016 | 10 | 270 | 3.2 | 9.7 | 0.00 | 0.00 | 0.00 | 47 | 1017.6 |
| 20260502194516 | 10 | 248 | 3.2 | 8.0 | 0.00 | 0.00 | 0.00 | 48 | 1017.6 |
| 20260502194016 | 9 | 270 | 3.2 | 9.7 | 0.00 | 0.00 | 0.00 | 47 | 1017.7 |
| 20260502193516 | 9 | 293 | 3.2 | 16.1 | 0.00 | 0.00 | 0.00 | 47 | 1017.8 |
| 20260502193016 | 9 | 293 | 6.4 | 12.9 | 0.00 | 0.00 | 0.00 | 46 | 1017.9 |
| 20260502192516 | 9 | 338 | 3.2 | 12.9 | 0.00 | 0.00 | 0.00 | 47 | 1018.0 |
| 20260502192016 | 9 | 270 | 6.4 | 16.1 | 0.00 | 0.00 | 0.00 | 46 | 1017.9 |
| 20260502191516 | 9 | 270 | 3.2 | 12.9 | 0.00 | 0.00 | 0.00 | 46 | 1018.0 |
| 20260502191016 | 9 | 293 | 3.2 | 9.7 | 0.00 | 0.00 | 0.00 | 46 | 1018.0 |
| 20260502190516 | 9 | 293 | 6.4 | 20.9 | 0.00 | 0.00 | 0.00 | 45 | 1018.1 |
| 20260502190016 | 9 | 248 | 3.2 | 9.7 | 0.00 | 0.00 | 0.00 | 49 | 1018.1 |
| 20260502185516 | 8 | 293 | 3.2 | 12.9 | 0.00 | 0.00 | 0.00 | 48 | 1018.3 |
| 20260502185116 | 8 | 270 | 3.2 | 9.7 | 0.00 | 0.00 | 0.00 | 48 | 1018.3 |
| 20260502184516 | 8 | 293 | 3.2 | 16.1 | 0.00 | 0.00 | 0.00 | 48 | 1018.4 |
| 20260502184116 | 8 | 248 | 3.2 | 9.7 | 0.00 | 0.00 | 0.00 | 50 | 1018.4 |
| 20260502183546 | 8 | 0.0 | 3.2 | 0.00 | 0.00 | 0.00 | 50 | 1018.4 | |
| 20260502183016 | 8 | 248 | 3.2 | 8.0 | 0.00 | 0.00 | 0.00 | 51 | 1018.4 |
| 20260502182516 | 8 | 293 | 3.2 | 9.7 | 0.00 | 0.00 | 0.00 | 49 | 1018.3 |
| 20260502182016 | 8 | 248 | 3.2 | 12.9 | 0.00 | 0.00 | 0.00 | 49 | 1018.4 |
| 20260502181516 | 8 | 293 | 3.2 | 12.9 | 0.00 | 0.00 | 0.00 | 48 | 1018.4 |
| 20260502181016 | 8 | 270 | 3.2 | 12.9 | 0.00 | 0.00 | 0.00 | 51 | 1018.5 |
| 20260502180516 | 8 | 270 | 3.2 | 12.9 | 0.00 | 0.00 | 0.00 | 48 | 1018.5 |
| 20260502170516 | 8 | 0.0 | 12.9 | 0.00 | 0.00 | 0.00 | 50 | 1018.9 | |
| 20260502164016 | 8 | 248 | 3.2 | 17.7 | 0.00 | 0.00 | 0.00 | 47 | 1018.9 |
| 20260502163516 | 8 | 270 | 3.2 | 9.7 | 0.00 | 0.00 | 0.00 | 47 | 1019.0 |
| 20260502163046 | 7 | 315 | 3.2 | 12.9 | 0.00 | 0.00 | 0.00 | 51 | 1019.1 |
| 20260502162516 | 7 | 293 | 3.2 | 16.1 | 0.00 | 0.00 | 0.00 | 51 | 1019.1 |
| 20260502162046 | 7 | 315 | 3.2 | 12.9 | 0.00 | 0.00 | 0.00 | 49 | 1019.1 |
| 20260502161516 | 7 | 0.0 | 4.8 | 0.00 | 0.00 | 0.00 | 49 | 1019.1 | |
| 20260502161016 | 7 | 315 | 3.2 | 9.7 | 0.00 | 0.00 | 0.00 | 51 | 1019.2 |
| 20260502160546 | 7 | 293 | 3.2 | 12.9 | 0.00 | 0.00 | 0.00 | 51 | 1019.2 |
| 20260502152016 | 7 | 248 | 3.2 | 8.0 | 0.00 | 0.00 | 0.00 | 49 | 1019.1 |
| 20260502151516 | 7 | 293 | 3.2 | 12.9 | 0.00 | 0.00 | 0.00 | 47 | 1019.2 |
| 20260502151016 | 8 | 270 | 3.2 | 9.7 | 0.00 | 0.00 | 0.00 | 48 | 1019.1 |
| 20260502150516 | 8 | 270 | 3.2 | 8.0 | 0.00 | 0.00 | 0.00 | 48 | 1019.1 |
| 20260502130516 | 3 | 315 | 3.2 | 8.0 | 0.00 | 0.00 | 0.00 | 65 | 1019.4 |
| 20260502123546 | 2 | 315 | 3.2 | 16.1 | 0.00 | 0.00 | 0.00 | 73 | 1019.4 |
| 20260502123016 | 2 | 0.0 | 16.1 | 0.00 | 0.00 | 0.00 | 74 | 1019.3 | |
| 20260502122515 | 2 | 315 | 3.2 | 16.1 | 0.00 | 0.00 | 0.00 | 75 | 1019.3 |
| 20260502122045 | 2 | 293 | 3.2 | 8.0 | 0.00 | 0.00 | 0.00 | 74 | 1019.3 |
| 20260502121515 | 1 | 0.0 | 3.2 | 0.00 | 0.00 | 0.00 | 75 | 1019.3 | |
| 20260502121016 | 1 | 315 | 3.2 | 12.9 | 0.00 | 0.00 | 0.00 | 75 | 1019.3 |
| 20260502120715 | 1 | 293 | 3.2 | 12.9 | 0.00 | 0.00 | 0.00 | 76 | 1019.3 |
| 20260502115516 | 1 | 338 | 3.2 | 8.0 | 0.00 | 0.00 | 0.00 | 77 | 1019.3 |
| 20260502115015 | 1 | 0.0 | 8.0 | 0.00 | 0.00 | 0.00 | 78 | 1019.2 | |
| 20260502114515 | 1 | 293 | 3.2 | 8.0 | 0.00 | 0.00 | 0.00 | 78 | 1019.2 |
| 20260502114015 | 1 | 0.0 | 4.8 | 0.00 | 0.00 | 0.00 | 79 | 1019.3 | |
| 20260502113515 | 0 | 338 | 3.2 | 8.0 | 0.00 | 0.00 | 0.00 | 79 | 1019.2 |
| 20260502113015 | 0 | 0.0 | 3.2 | 0.00 | 0.00 | 0.00 | 80 | 1019.2 | |
| 20260502112515 | 0 | 0.0 | 3.2 | 0.00 | 0.00 | 0.00 | 81 | 1019.1 | |
| 20260502112045 | 0 | 0.0 | 3.2 | 0.00 | 0.00 | 0.00 | 82 | 1019.1 | |
| 20260502111516 | 0 | 0.0 | 3.2 | 0.00 | 0.00 | 0.00 | 84 | 1019.0 | |
| 20260502111016 | 0 | 0.0 | 3.2 | 0.00 | 0.00 | 0.00 | 86 | 1019.0 | |
| 20260502110515 | -1 | 0.0 | 3.2 | 0.00 | 0.00 | 0.00 | 86 | 1019.0 | |
| 20260502110015 | 0 | 0.0 | 0.0 | 0.00 | 0.00 | 0.00 | 86 | 1018.9 | |
| 20260502105515 | 0 | 0.0 | 0.0 | 0.00 | 0.00 | 0.00 | 86 | 1018.9 | |
| 20260502105015 | 0 | 0.0 | 0.0 | 0.00 | 0.00 | 0.00 | 86 | 1018.9 | |
| 20260502104515 | 0 | 0.0 | 0.0 | 0.00 | 0.00 | 0.00 | 85 | 1018.8 | |
| 20260502104015 | 0 | 0.0 | 0.0 | 0.00 | 0.00 | 0.00 | 84 | 1018.9 | |
| 20260502103515 | 0 | 0.0 | 0.0 | 0.00 | 0.00 | 0.00 | 84 | 1019.0 | |
| 20260502103015 | 0 | 0.0 | 0.0 | 0.00 | 0.00 | 0.00 | 84 | 1019.0 | |
| 20260502102515 | 0 | 0.0 | 0.0 | 0.00 | 0.00 | 0.00 | 83 | 1018.8 | |
| 20260502102015 | 0 | 0.0 | 0.0 | 0.00 | 0.00 | 0.00 | 82 | 1018.8 | |
| 20260502101515 | 0 | 0.0 | 0.0 | 0.00 | 0.00 | 0.00 | 82 | 1018.7 | |
| 20260502101045 | 0 | 0.0 | 0.0 | 0.00 | 0.00 | 0.00 | 81 | 1018.7 | |
| 20260502100515 | 0 | 0.0 | 0.0 | 0.00 | 0.00 | 0.00 | 81 | 1018.6 | |
| 20260502091517 | 1 | 0.0 | 0.0 | 0.00 | 0.00 | 0.00 | 77 | 1018.4 | |
| 20260502091017 | 1 | 0.0 | 0.0 | 0.00 | 0.00 | 0.00 | 77 | 1018.3 | |
| 20260502090517 | 1 | 0.0 | 0.0 | 0.00 | 0.00 | 0.00 | 76 | 1018.3 | |
| 20260502071517 | 3 | 0.0 | 8.0 | 0.00 | 0.00 | 0.00 | 68 | 1018.0 | |
| 20260502071017 | 3 | 0.0 | 3.2 | 0.00 | 0.00 | 0.00 | 69 | 1018.0 | |
| 20260502070517 | 3 | 0.0 | 3.2 | 0.00 | 0.00 | 0.00 | 68 | 1018.1 | |
| 20260502070017 | 3 | 0.0 | 4.8 | 0.00 | 0.00 | 0.00 | 67 | 1018.2 | |
| 20260502065517 | 3 | 0.0 | 4.8 | 0.00 | 0.00 | 0.00 | 67 | 1018.1 | |
| 20260502065017 | 3 | 0.0 | 3.2 | 0.00 | 0.00 | 0.00 | 67 | 1018.2 | |
| 20260502064617 | 3 | 0.0 | 3.2 | 0.00 | 0.00 | 0.00 | 66 | 1018.2 | |
| 20260502064047 | 3 | 0.0 | 3.2 | 0.00 | 0.00 | 0.00 | 66 | 1018.2 | |
| 20260502063517 | 3 | 0.0 | 3.2 | 0.00 | 0.00 | 0.00 | 66 | 1018.3 | |
| 20260502063017 | 3 | 0 | 3.2 | 8.0 | 0.00 | 0.00 | 0.00 | 66 | 1018.2 |
| 20260502062517 | 3 | 0.0 | 8.0 | 0.00 | 0.00 | 0.00 | 66 | 1018.3 | |
| 20260502062017 | 3 | 0.0 | 3.2 | 0.00 | 0.00 | 0.00 | 65 | 1018.4 | |
| 20260502061517 | 3 | 0.0 | 4.8 | 0.00 | 0.00 | 0.00 | 65 | 1018.4 | |
| 20260502061017 | 3 | 0.0 | 4.8 | 0.00 | 0.00 | 0.00 | 65 | 1018.4 | |
| 20260502060517 | 3 | 0.0 | 4.8 | 0.00 | 0.00 | 0.00 | 65 | 1018.3 | |
| 20260502060017 | 3 | 0.0 | 3.2 | 0.00 | 0.00 | 0.00 | 66 | 1018.3 | |
| 20260502055517 | 4 | 0.0 | 3.2 | 0.00 | 0.00 | 0.00 | 65 | 1018.3 | |
| 20260502055017 | 4 | 0.0 | 4.8 | 0.00 | 0.00 | 0.00 | 65 | 1018.4 | |
| 20260502054517 | 4 | 0.0 | 3.2 | 0.00 | 0.00 | 0.00 | 65 | 1018.4 | |
| 20260502054017 | 4 | 0.0 | 4.8 | 0.00 | 0.00 | 0.00 | 64 | 1018.4 | |
| 20260502053547 | 4 | 0.0 | 4.8 | 0.00 | 0.00 | 0.00 | 64 | 1018.4 | |
| 20260502053017 | 4 | 0.0 | 3.2 | 0.00 | 0.00 | 0.00 | 64 | 1018.4 | |
| 20260502052517 | 4 | 293 | 3.2 | 8.0 | 0.00 | 0.00 | 0.00 | 63 | 1018.3 |
| 20260502052017 | 4 | 338 | 3.2 | 9.7 | 0.00 | 0.00 | 0.00 | 63 | 1018.3 |
| 20260502051516 | 4 | 0.0 | 3.2 | 0.00 | 0.00 | 0.00 | 64 | 1018.3 | |
| 20260502051017 | 4 | 0.0 | 8.0 | 0.00 | 0.00 | 0.00 | 63 | 1018.3 | |
| 20260502050517 | 4 | 0.0 | 8.0 | 0.00 | 0.00 | 0.00 | 63 | 1018.2 | |
| 20260502050016 | 4 | 0.0 | 8.0 | 0.00 | 0.00 | 0.00 | 63 | 1018.3 | |
| 20260502045517 | 4 | 0.0 | 4.8 | 0.00 | 0.00 | 0.00 | 62 | 1018.2 | |
| 20260502045017 | 4 | 0.0 | 4.8 | 0.00 | 0.00 | 0.00 | 62 | 1018.1 | |
| 20260502044516 | 4 | 0.0 | 4.8 | 0.00 | 0.00 | 0.00 | 63 | 1018.0 | |
| 20260502044017 | 4 | 0.0 | 3.2 | 0.00 | 0.00 | 0.00 | 62 | 1018.0 | |
| 20260502043517 | 4 | 0.0 | 3.2 | 0.00 | 0.00 | 0.00 | 62 | 1018.0 | |
| 20260502043017 | 5 | 0.0 | 3.2 | 0.00 | 0.00 | 0.00 | 61 | 1018.0 | |
| 20260502042516 | 5 | 0.0 | 4.8 | 0.00 | 0.00 | 0.00 | 62 | 1017.9 | |
| 20260502042047 | 5 | 0.0 | 4.8 | 0.00 | 0.00 | 0.00 | 62 | 1017.8 | |
| 20260502041516 | 5 | 0.0 | 3.2 | 0.00 | 0.00 | 0.00 | 62 | 1017.8 | |
| 20260502041017 | 5 | 0.0 | 3.2 | 0.00 | 0.00 | 0.00 | 62 | 1017.8 | |
| 20260502040617 | 5 | 0.0 | 3.2 | 0.00 | 0.00 | 0.00 | 61 | 1017.8 | |
| 20260502040017 | 5 | 0.0 | 3.2 | 0.00 | 0.00 | 0.00 | 60 | 1017.8 | |
| 20260502035517 | 5 | 0.0 | 4.8 | 0.00 | 0.00 | 0.00 | 61 | 1017.8 | |
| 20260502035017 | 5 | 0.0 | 8.0 | 0.00 | 0.00 | 0.00 | 62 | 1017.8 | |
| 20260502034517 | 5 | 0.0 | 4.8 | 0.00 | 0.00 | 0.00 | 63 | 1017.7 | |
| 20260502034017 | 5 | 0.0 | 4.8 | 0.00 | 0.00 | 0.00 | 63 | 1017.7 | |
| 20260502033547 | 5 | 0.0 | 8.0 | 0.00 | 0.00 | 0.00 | 62 | 1017.7 | |
| 20260502033047 | 5 | 0.0 | 3.2 | 0.00 | 0.00 | 0.00 | 62 | 1017.8 | |
| 20260502032517 | 5 | 0.0 | 3.2 | 0.00 | 0.00 | 0.00 | 63 | 1017.7 | |
| 20260502032017 | 5 | 0.0 | 3.2 | 0.00 | 0.00 | 0.00 | 63 | 1017.7 | |
| 20260502031517 | 5 | 0.0 | 3.2 | 0.00 | 0.00 | 0.00 | 63 | 1017.7 | |
| 20260502031017 | 5 | 293 | 3.2 | 4.8 | 0.00 | 0.00 | 0.00 | 62 | 1017.6 |
| 20260502030517 | 5 | 293 | 3.2 | 8.0 | 0.00 | 0.00 | 0.00 | 62 | 1017.6 |
| 20260502030017 | 5 | 0.0 | 12.9 | 0.00 | 0.00 | 0.00 | 62 | 1017.7 | |
| 20260502025517 | 5 | 338 | 3.2 | 12.9 | 0.00 | 0.00 | 0.00 | 62 | 1017.7 |
| 20260502025017 | 5 | 0 | 3.2 | 4.8 | 0.00 | 0.00 | 0.00 | 62 | 1017.6 |
| 20260502024517 | 5 | 0.0 | 4.8 | 0.00 | 0.00 | 0.00 | 63 | 1017.6 | |
| 20260502024017 | 5 | 0.0 | 3.2 | 0.00 | 0.00 | 0.00 | 62 | 1017.6 | |
| 20260502023517 | 5 | 338 | 3.2 | 8.0 | 0.00 | 0.00 | 0.00 | 61 | 1017.5 |
| 20260502023047 | 5 | 0.0 | 4.8 | 0.00 | 0.00 | 0.00 | 61 | 1017.6 | |
| 20260502022517 | 5 | 0.0 | 4.8 | 0.00 | 0.00 | 0.00 | 62 | 1017.5 | |
| 20260502022017 | 5 | 293 | 3.2 | 12.9 | 0.00 | 0.00 | 0.00 | 61 | 1017.5 |
| 20260502021517 | 5 | 293 | 3.2 | 8.0 | 0.00 | 0.00 | 0.00 | 61 | 1017.5 |
| 20260502021117 | 5 | 270 | 3.2 | 9.7 | 0.00 | 0.00 | 0.00 | 61 | 1017.4 |
| 20260502020517 | 5 | 0.0 | 9.7 | 0.00 | 0.00 | 0.00 | 61 | 1017.4 | |
| 20260502020147 | 5 | 0.0 | 4.8 | 0.00 | 0.00 | 0.00 | 61 | 1017.3 | |
| 20260502015517 | 6 | 45 | 3.2 | 12.9 | 0.00 | 0.00 | 0.00 | 61 | 1017.2 |
| 20260502015017 | 6 | 270 | 3.2 | 9.7 | 0.00 | 0.00 | 0.00 | 61 | 1017.1 |
| 20260502014517 | 6 | 293 | 3.2 | 9.7 | 0.00 | 0.00 | 0.00 | 60 | 1017.1 |
| 20260502014017 | 6 | 0.0 | 3.2 | 0.00 | 0.00 | 0.00 | 62 | 1017.0 | |
| 20260502013517 | 6 | 293 | 3.2 | 12.9 | 0.00 | 0.00 | 0.00 | 61 | 1016.9 |
| 20260502013017 | 6 | 293 | 3.2 | 8.0 | 0.00 | 0.00 | 0.00 | 61 | 1016.8 |
| 20260502012547 | 6 | 0.0 | 8.0 | 0.00 | 0.00 | 0.00 | 63 | 1016.8 | |
| 20260502012047 | 6 | 0.0 | 8.0 | 0.00 | 0.00 | 0.00 | 63 | 1016.8 | |
| 20260502011547 | 6 | 0.0 | 8.0 | 0.00 | 0.00 | 0.00 | 63 | 1016.7 | |
| 20260502011017 | 5 | 0.0 | 3.2 | 0.00 | 0.00 | 0.00 | 65 | 1016.8 | |
| 20260502010517 | 5 | 0.0 | 3.2 | 0.00 | 0.00 | 0.00 | 66 | 1016.7 | |
| 20260502010017 | 5 | 0.0 | 3.2 | 0.00 | 0.00 | 0.00 | 66 | 1016.7 | |
| 20260502005517 | 6 | 0.0 | 3.2 | 0.00 | 0.00 | 0.00 | 67 | 1016.6 | |
| 20260502005017 | 6 | 0.0 | 4.8 | 0.00 | 0.00 | 0.00 | 65 | 1016.7 | |
| 20260502004517 | 6 | 0.0 | 3.2 | 0.00 | 0.00 | 0.00 | 66 | 1016.6 | |
| 20260502004016 | 6 | 0.0 | 3.2 | 0.00 | 0.00 | 0.00 | 67 | 1016.7 | |
| 20260502003517 | 6 | 0.0 | 3.2 | 0.00 | 0.00 | 0.00 | 66 | 1016.7 | |
| 20260502003017 | 6 | 0.0 | 4.8 | 0.00 | 0.00 | 0.00 | 65 | 1016.6 | |
| 20260502002516 | 6 | 270 | 3.2 | 8.0 | 0.00 | 0.00 | 0.00 | 65 | 1016.6 |
| 20260502002017 | 6 | 0.0 | 4.8 | 0.00 | 0.00 | 0.00 | 66 | 1016.7 | |
| 20260502001517 | 6 | 270 | 3.2 | 9.7 | 0.00 | 0.00 | 0.00 | 65 | 1016.5 |
| 20260502001047 | 6 | 0.0 | 3.2 | 0.00 | 0.00 | 0.00 | 66 | 1016.6 | |
| 20260502000516 | 6 | 0.0 | 3.2 | 0.00 | 0.00 | 0.00 | 66 | 1016.6 | |
| 20260502000017 | 6 | 293 | 3.2 | 12.9 | 0.00 | 0.00 | 0.00 | 66 | 1016.5 |
| 20260501235516 | 6 | 0.0 | 3.2 | 0.00 | 0.00 | 0.00 | 65 | 1016.5 | |
| 20260501235017 | 6 | 0.0 | 9.7 | 0.00 | 0.00 | 0.00 | 65 | 1016.5 | |
| 20260501234547 | 6 | 0.0 | 8.0 | 0.00 | 0.00 | 0.00 | 65 | 1016.4 | |
| 20260501234017 | 6 | 293 | 3.2 | 16.1 | 0.00 | 0.00 | 0.00 | 65 | 1016.4 |
| 20260501233516 | 6 | 0.0 | 4.8 | 0.00 | 0.00 | 0.00 | 64 | 1016.3 | |
| 20260501233017 | 6 | 0.0 | 12.9 | 0.00 | 0.00 | 0.00 | 64 | 1016.4 | |
| 20260501232516 | 6 | 270 | 3.2 | 12.9 | 0.00 | 0.00 | 0.00 | 63 | 1016.3 |
| 20260501232017 | 6 | 293 | 3.2 | 16.1 | 0.00 | 0.00 | 0.00 | 63 | 1016.3 |
| 20260501231547 | 6 | 0.0 | 3.2 | 0.00 | 0.00 | 0.00 | 64 | 1016.3 | |
| 20260501231017 | 7 | 23 | 3.2 | 17.7 | 0.00 | 0.00 | 0.00 | 62 | 1016.3 |
| 20260501230617 | 7 | 0.0 | 4.8 | 0.00 | 0.00 | 0.00 | 64 | 1016.3 | |
| 20260501230017 | 7 | 293 | 3.2 | 12.9 | 0.00 | 0.00 | 0.00 | 63 | 1016.3 |
| 20260501225516 | 7 | 293 | 3.2 | 12.9 | 0.00 | 0.00 | 0.00 | 63 | 1016.3 |
| 20260501225017 | 7 | 293 | 3.2 | 12.9 | 0.00 | 0.00 | 0.00 | 63 | 1016.3 |
| 20260501224547 | 7 | 0.0 | 16.1 | 0.00 | 0.00 | 0.00 | 62 | 1016.3 | |
| 20260501224017 | 7 | 0.0 | 3.2 | 0.00 | 0.00 | 0.00 | 62 | 1016.2 | |
| 20260501223516 | 7 | 0.0 | 4.8 | 0.00 | 0.00 | 0.00 | 62 | 1016.3 | |
| 20260501223017 | 7 | 0.0 | 9.7 | 0.00 | 0.00 | 0.00 | 62 | 1016.3 | |
| 20260501222516 | 7 | 0.0 | 4.8 | 0.00 | 0.00 | 0.00 | 62 | 1016.2 |